When you browse on this site, cookies collect data to enhance your experience and personalize the content and advertising you see.
Visit our Privacy Policy to learn more. By continuing to use the site, you agree to this use of cookies and data.
  • In Slovakia
  • List of Countries
  • For 7 days
  • Water Temperature
  • Weather Map
  • Weather Widgets
  • user-avatar
    Login

    Hourly Weather Macharce

    Today, 31 May, Sunday

    Time Temperature Precipitation Wind Pressure Humidity
    00:00 +12°C° 0 mm 7 mps 746 mmHg 79%
    01:00 +12°C° 0 mm 8 mps 746 mmHg 76%
    02:00 +12°C° 0 mm 8 mps 746 mmHg 73%
    03:00 +12°C° 0 mm 8 mps 746 mmHg 72%
    04:00 +11°C° 0 mm 8 mps 747 mmHg 72%
    05:00 +11°C° 0 mm 8 mps 747 mmHg 71%
    06:00 +12°C° 0 mm 8 mps 747 mmHg 71%
    07:00 +12°C° 0 mm 8 mps 748 mmHg 71%
    08:00 +12°C° 0 mm 8 mps 748 mmHg 72%
    09:00 +15°C° 0 mm 8 mps 748 mmHg 68%
    10:00 +16°C° 0 mm 8 mps 749 mmHg 64%
    11:00 +17°C° 0 mm 8 mps 749 mmHg 61%
    12:00 +18°C° 0 mm 8 mps 749 mmHg 59%
    13:00 +18°C° 0 mm 8 mps 749 mmHg 57%
    14:00 +20°C° 0 mm 8 mps 750 mmHg 56%
    15:00 +18°C° 0 mm 7 mps 750 mmHg 57%
    16:00 +18°C° 0 mm 7 mps 750 mmHg 58%
    17:00 +18°C° 0 mm 7 mps 750 mmHg 59%
    18:00 +17°C° 0 mm 6 mps 750 mmHg 61%
    19:00 +15°C° 0 mm 6 mps 751 mmHg 62%
    20:00 +14°C° 0 mm 5 mps 751 mmHg 63%
    21:00 +13°C° 0 mm 5 mps 751 mmHg 62%
    22:00 +12°C° 0 mm 4 mps 752 mmHg 62%
    23:00 +11°C° 0 mm 4 mps 752 mmHg 62%

    Tomorrow, 1 June, Monday

    Time Temperature Precipitation Wind Pressure Humidity
    00:00 +10°C° 0 mm 4 mps 752 mmHg 64%
    01:00 +8°C° 0 mm 4 mps 753 mmHg 67%
    02:00 +8°C° 0 mm 4 mps 753 mmHg 70%
    03:00 +7°C° 0 mm 4 mps 753 mmHg 71%
    04:00 +6°C° 0 mm 4 mps 753 mmHg 72%
    05:00 +6°C° 0 mm 4 mps 753 mmHg 73%
    06:00 +7°C° 0 mm 5 mps 753 mmHg 69%
    07:00 +8°C° 0 mm 5 mps 753 mmHg 65%
    08:00 +9°C° 0 mm 6 mps 754 mmHg 62%
    09:00 +10°C° 0 mm 6 mps 754 mmHg 58%
    10:00 +11°C° 0 mm 7 mps 753 mmHg 55%
    11:00 +12°C° 0 mm 7 mps 753 mmHg 52%
    12:00 +14°C° 0 mm 7 mps 753 mmHg 52%
    13:00 +14°C° 0 mm 7 mps 753 mmHg 52%
    14:00 +15°C° 0 mm 7 mps 752 mmHg 51%
    15:00 +15°C° 0 mm 7 mps 752 mmHg 52%
    16:00 +15°C° 0 mm 6 mps 752 mmHg 53%
    17:00 +15°C° 0 mm 6 mps 751 mmHg 54%
    18:00 +14°C° 0 mm 5 mps 751 mmHg 59%
    19:00 +13°C° 0 mm 4 mps 751 mmHg 64%
    20:00 +11°C° 0 mm 3 mps 751 mmHg 70%
    21:00 +10°C° 0 mm 3 mps 751 mmHg 73%
    22:00 +9°C° 0 mm 3 mps 751 mmHg 76%
    23:00 +8°C° 0 mm 3 mps 751 mmHg 79%

    Day after tomorrow, 2 June, Tuesday

    Time Temperature Precipitation Wind Pressure Humidity
    00:00 +8°C° 0 mm 3 mps 750 mmHg 81%
    01:00 +7°C° 0 mm 3 mps 750 mmHg 82%
    02:00 +5°C° 0 mm 3 mps 750 mmHg 84%
    03:00 +5°C° 0 mm 4 mps 750 mmHg 83%
    04:00 +5°C° 0 mm 4 mps 749 mmHg 82%
    05:00 +5°C° 0 mm 4 mps 749 mmHg 81%
    06:00 +7°C° 0 mm 5 mps 749 mmHg 76%
    07:00 +9°C° 0 mm 6 mps 749 mmHg 71%
    08:00 +10°C° 0 mm 7 mps 749 mmHg 66%
    09:00 +12°C° 0 mm 8 mps 748 mmHg 63%
    10:00 +13°C° 0 mm 8 mps 748 mmHg 60%
    11:00 +15°C° 0 mm 8 mps 748 mmHg 57%
    12:00 +15°C° 0 mm 8 mps 747 mmHg 58%
    13:00 +15°C° 0 mm 7 mps 747 mmHg 59%
    14:00 +15°C° 0 mm 7 mps 747 mmHg 59%
    15:00 +15°C° 0.1 mm 6 mps 747 mmHg 62%
    16:00 +14°C° 0.1 mm 6 mps 746 mmHg 65%
    17:00 +14°C° 0.1 mm 5 mps 746 mmHg 68%
    18:00 +13°C° 0 mm 4 mps 746 mmHg 71%
    19:00 +12°C° 0 mm 4 mps 746 mmHg 74%
    20:00 +11°C° 0 mm 3 mps 745 mmHg 77%
    21:00 +10°C° 0 mm 3 mps 745 mmHg 78%
    22:00 +10°C° 0 mm 3 mps 745 mmHg 80%
    23:00 +10°C° 0 mm 3 mps 745 mmHg 82%

    3 June, Wednesday

    Time Temperature Precipitation Wind Pressure Humidity
    00:00 +10°C° 0.1 mm 3 mps 744 mmHg 83%
    01:00 +10°C° 0.1 mm 3 mps 744 mmHg 84%
    02:00 +10°C° 0.1 mm 3 mps 744 mmHg 85%
    03:00 +10°C° 0.2 mm 4 mps 744 mmHg 88%
    04:00 +8°C° 0.2 mm 4 mps 743 mmHg 91%
    05:00 +8°C° 0.2 mm 4 mps 743 mmHg 94%
    06:00 +8°C° 0.2 mm 4 mps 743 mmHg 95%
    07:00 +10°C° 0.2 mm 4 mps 743 mmHg 95%
    08:00 +10°C° 0.2 mm 3 mps 743 mmHg 96%
    09:00 +11°C° 0.1 mm 4 mps 743 mmHg 89%
    10:00 +13°C° 0.1 mm 4 mps 743 mmHg 82%
    11:00 +14°C° 0.1 mm 4 mps 743 mmHg 75%
    12:00 +14°C° 0.6 mm 4 mps 742 mmHg 74%
    13:00 +15°C° 0.6 mm 4 mps 742 mmHg 73%
    14:00 +17°C° 0.6 mm 4 mps 742 mmHg 72%
    15:00 +15°C° 0.8 mm 4 mps 742 mmHg 73%
    16:00 +15°C° 0.8 mm 4 mps 741 mmHg 75%
    17:00 +16°C° 0.8 mm 3 mps 741 mmHg 76%
    18:00 +14°C° 0.5 mm 3 mps 741 mmHg 80%
    19:00 +13°C° 0.5 mm 3 mps 741 mmHg 85%
    20:00 +13°C° 0.5 mm 2 mps 741 mmHg 89%
    21:00 +12°C° 0 mm 2 mps 741 mmHg 91%
    22:00 +10°C° 0 mm 2 mps 741 mmHg 93%
    23:00 +9°C° 0 mm 2 mps 741 mmHg 95%

    4 June, Thursday

    Time Temperature Precipitation Wind Pressure Humidity
    00:00 +8°C° 0 mm 2 mps 741 mmHg 96%
    01:00 +8°C° 0 mm 2 mps 741 mmHg 96%
    02:00 +7°C° 0 mm 2 mps 740 mmHg 97%
    03:00 +7°C° 0 mm 2 mps 740 mmHg 97%
    04:00 +7°C° 0 mm 2 mps 740 mmHg 98%
    05:00 +7°C° 0 mm 2 mps 740 mmHg 98%
    06:00 +8°C° 0 mm 2 mps 740 mmHg 95%
    07:00 +10°C° 0 mm 2 mps 740 mmHg 91%
    08:00 +12°C° 0 mm 2 mps 740 mmHg 87%
    09:00 +14°C° 0.2 mm 2 mps 740 mmHg 81%
    10:00 +15°C° 0.2 mm 1 mps 740 mmHg 75%
    11:00 +16°C° 0.2 mm 1 mps 740 mmHg 69%
    12:00 +18°C° 0.7 mm 1 mps 740 mmHg 69%
    13:00 +18°C° 0.7 mm 1 mps 739 mmHg 69%
    14:00 +18°C° 0.7 mm 1 mps 739 mmHg 70%
    15:00 +19°C° 0.2 mm 1 mps 739 mmHg 67%
    16:00 +19°C° 0.2 mm 1 mps 739 mmHg 64%
    17:00 +19°C° 0.2 mm 1 mps 738 mmHg 62%
    18:00 +18°C° 0 mm 1 mps 738 mmHg 67%
    19:00 +16°C° 0 mm 1 mps 738 mmHg 72%
    20:00 +14°C° 0 mm 0 mps 738 mmHg 78%
    21:00 +14°C° 0 mm 1 mps 738 mmHg 81%
    22:00 +12°C° 0 mm 1 mps 737 mmHg 85%
    23:00 +11°C° 0 mm 1 mps 737 mmHg 88%

    5 June, Friday

    Time Temperature Precipitation Wind Pressure Humidity
    00:00 +11°C° 0 mm 1 mps 737 mmHg 89%
    01:00 +11°C° 0 mm 1 mps 737 mmHg 90%
    02:00 +11°C° 0 mm 1 mps 736 mmHg 90%
    03:00 +11°C° 0 mm 1 mps 736 mmHg 90%
    04:00 +11°C° 0 mm 1 mps 735 mmHg 90%
    05:00 +12°C° 0 mm 1 mps 735 mmHg 89%
    06:00 +13°C° 0.2 mm 1 mps 735 mmHg 88%
    07:00 +14°C° 0.2 mm 1 mps 735 mmHg 86%
    08:00 +15°C° 0.2 mm 1 mps 735 mmHg 84%
    09:00 +14°C° 0.8 mm 2 mps 735 mmHg 87%
    10:00 +13°C° 0.8 mm 3 mps 735 mmHg 90%
    11:00 +12°C° 0.8 mm 3 mps 736 mmHg 93%
    12:00 +12°C° 2 mm 4 mps 736 mmHg 94%
    13:00 +11°C° 2 mm 4 mps 736 mmHg 94%
    14:00 +9°C° 2 mm 5 mps 736 mmHg 95%
    15:00 +10°C° 0.6 mm 5 mps 737 mmHg 93%
    16:00 +12°C° 0.6 mm 5 mps 737 mmHg 90%
    17:00 +12°C° 0.6 mm 5 mps 738 mmHg 88%
    18:00 +12°C° 0 mm 5 mps 738 mmHg 88%
    19:00 +10°C° 0 mm 5 mps 738 mmHg 88%
    20:00 +9°C° 0 mm 5 mps 739 mmHg 89%
    21:00 +9°C° 0 mm 5 mps 739 mmHg 89%
    22:00 +9°C° 0 mm 5 mps 740 mmHg 89%
    23:00 +9°C° 0 mm 5 mps 740 mmHg 89%
    Show more